Location: Koslow
(50.3020°N, 18.5663°E)
Time: 03:43:19
(UTC+00:00)

Cosmos 1842 Rocket - Pass Details

Date: 07 June 2020
Orbit: 605 x 634 km, 82.5° (Epoch: 04 July)

Event Time Altitude Azimuth Distance (km) Brightness Sun altitude
Rises 00:35:37 0° 348° (NNW) 2,940 7.9 -12.9°
Reaches altitude 10° 00:37:53 10° 346° (NNW) 2,024 7.0 -12.7°
Maximum altitude 00:42:21 72° 263° (W) 664 3.6 -12.4°
Enters shadow 00:46:05 14° 180° (S) 1,724 5.3 -12.1°
